THA199 RJFF-ROAH

Flight info

Callsign THA199
Flight time 1h 19m
Altitude 36000
Route YAMGA VEMRA Y506 HKC Y45 ONC Y525 IHEYA
Aircraft A319/M-SDE3FGHIRWY/LB1

Departure

Time 2026-04-25 16:38
Airport Fukuoka Airport (RJFF)

Arrival

Time 2026-04-25 17:58
Airport Naha International Airport (ROAH)
Time Latitude Longitude Altitude Speed Heading
2026-04-25 16:08 33.58436 130.44606 27 ft 0 kts 240°
2026-04-25 16:27 33.58440 130.44614 27 ft 2 kts 240°
2026-04-25 16:27 33.58447 130.44629 27 ft 2 kts 240°
2026-04-25 16:28 33.58454 130.44644 27 ft 2 kts 240°
2026-04-25 16:28 33.58460 130.44661 27 ft 2 kts 259°
2026-04-25 16:28 33.58461 130.44679 27 ft 2 kts 275°
2026-04-25 16:28 33.58458 130.44698 27 ft 2 kts 291°
2026-04-25 16:29 33.58451 130.44713 27 ft 2 kts 307°
2026-04-25 16:29 33.58440 130.44727 27 ft 2 kts 322°
2026-04-25 16:29 33.58434 130.44731 27 ft 1 kts 332°
2026-04-25 16:29 33.58431 130.44734 27 ft 0 kts 330°
2026-04-25 16:30 33.58431 130.44733 27 ft 0 kts 330°
2026-04-25 16:31 33.58450 130.44720 27 ft 6 kts 329°
2026-04-25 16:31 33.58498 130.44685 28 ft 11 kts 327°
2026-04-25 16:31 33.58523 130.44667 28 ft 9 kts 327°
2026-04-25 16:32 33.58664 130.44565 30 ft 0 kts 327°
2026-04-25 16:33 33.58691 130.44548 30 ft 9 kts 335°
2026-04-25 16:33 33.58790 130.44488 29 ft 20 kts 329°
2026-04-25 16:33 33.58900 130.44450 27 ft 19 kts 17°
2026-04-25 16:33 33.58978 130.44556 24 ft 17 kts
2026-04-25 16:34 33.59134 130.44473 20 ft 29 kts 326°
2026-04-25 16:34 33.59297 130.44360 16 ft 29 kts 329°
2026-04-25 16:34 33.59473 130.44266 13 ft 26 kts 350°
2026-04-25 16:34 33.59652 130.44269 10 ft 21 kts 53°
2026-04-25 16:35 33.59588 130.44398 10 ft 11 kts 148°
2026-04-25 16:35 33.59575 130.44408 10 ft 0 kts 148°
2026-04-25 16:37 33.59572 130.44409 10 ft 9 kts 148°
2026-04-25 16:37 33.59249 130.44630 18 ft 95 kts 152°
2026-04-25 16:38 33.58439 130.45155 43 ft 164 kts 153°
2026-04-25 16:38 33.57391 130.45833 737 ft 170 kts 152°
2026-04-25 16:38 33.56438 130.46426 1100 ft 149 kts 153°
2026-04-25 16:38 33.55509 130.46986 1148 ft 153 kts 153°
2026-04-25 16:39 33.54518 130.47588 1445 ft 169 kts 153°
2026-04-25 16:39 33.53444 130.48250 2018 ft 183 kts 152°
2026-04-25 16:39 33.52272 130.48979 2572 ft 200 kts 152°
2026-04-25 16:39 33.51007 130.49771 3139 ft 218 kts 152°
2026-04-25 16:40 33.49627 130.50638 3719 ft 236 kts 152°
2026-04-25 16:40 33.48117 130.51590 4303 ft 254 kts 152°
2026-04-25 16:40 33.46511 130.52602 4978 ft 268 kts 152°
2026-04-25 16:40 33.44865 130.53635 5878 ft 271 kts 152°
2026-04-25 16:41 33.43207 130.54672 6769 ft 274 kts 152°
2026-04-25 16:41 33.42639 130.55026 7060 ft 275 kts 152°
2026-04-25 16:41 33.38079 130.57867 9257 ft 285 kts 152°
2026-04-25 16:42 33.36308 130.58968 10049 ft 288 kts 152°
2026-04-25 16:42 33.34522 130.60078 10656 ft 298 kts 152°
2026-04-25 16:42 33.32637 130.61249 11014 ft 316 kts 152°
2026-04-25 16:42 33.30638 130.62488 11343 ft 334 kts 152°
2026-04-25 16:43 33.28539 130.63789 11652 ft 351 kts 152°
2026-04-25 16:43 33.26286 130.65184 11952 ft 369 kts 153°
2026-04-25 16:43 33.23970 130.66628 12234 ft 385 kts 152°
2026-04-25 16:43 33.21571 130.68123 12505 ft 400 kts 153°
2026-04-25 16:44 33.19062 130.69679 12988 ft 408 kts 153°
2026-04-25 16:44 33.16557 130.71230 13630 ft 411 kts 153°
2026-04-25 16:44 33.13982 130.72818 14248 ft 414 kts 153°
2026-04-25 16:44 33.11314 130.74092 14805 ft 418 kts 164°
2026-04-25 16:45 33.09438 130.74585 15181 ft 419 kts 172°
2026-04-25 16:45 33.06537 130.74757 15726 ft 423 kts 183°
2026-04-25 16:45 33.02640 130.74329 16433 ft 426 kts 186°
2026-04-25 16:45 32.99681 130.73921 16917 ft 430 kts 187°
2026-04-25 16:46 32.96721 130.73523 17390 ft 433 kts 186°
2026-04-25 16:46 32.93706 130.73138 17860 ft 436 kts 186°
2026-04-25 16:46 32.90683 130.72766 18315 ft 439 kts 186°
2026-04-25 16:46 32.89676 130.72643 18462 ft 440 kts 186°
2026-04-25 16:47 32.84586 130.72023 19182 ft 444 kts 186°
2026-04-25 16:47 32.82522 130.71773 19462 ft 446 kts 186°
2026-04-25 16:47 32.78402 130.71272 20001 ft 450 kts 186°
2026-04-25 16:47 32.75333 130.70900 20388 ft 452 kts 186°
2026-04-25 16:48 32.72179 130.70517 20770 ft 455 kts 186°
2026-04-25 16:48 32.69045 130.70137 21137 ft 457 kts 186°
2026-04-25 16:48 32.65871 130.69753 21495 ft 460 kts 186°
2026-04-25 16:48 32.62717 130.69371 21839 ft 462 kts 186°
2026-04-25 16:49 32.59503 130.68982 22174 ft 464 kts 186°
2026-04-25 16:49 32.56269 130.68591 22494 ft 466 kts 186°
2026-04-25 16:49 32.53067 130.68204 22797 ft 468 kts 186°
2026-04-25 16:49 32.49828 130.67813 23081 ft 470 kts 186°
2026-04-25 16:50 32.46567 130.67419 23356 ft 472 kts 186°
2026-04-25 16:50 32.43342 130.67030 23689 ft 472 kts 186°
2026-04-25 16:50 32.40068 130.66637 24092 ft 471 kts 186°
2026-04-25 16:50 32.36829 130.66248 24478 ft 470 kts 186°
2026-04-25 16:51 32.33545 130.65852 25018 ft 478 kts 186°
2026-04-25 16:51 32.30284 130.65462 26092 ft 472 kts 186°
2026-04-25 16:51 32.28122 130.65201 26849 ft 466 kts 186°
2026-04-25 16:51 32.26021 130.64947 27458 ft 462 kts 186°
2026-04-25 16:52 32.20729 130.64308 28553 ft 461 kts 186°
2026-04-25 16:52 32.17533 130.63922 29119 ft 460 kts 186°
2026-04-25 16:52 32.14388 130.63545 29659 ft 459 kts 186°
2026-04-25 16:52 32.11199 130.63164 30170 ft 458 kts 186°
2026-04-25 16:53 32.04910 130.62415 31074 ft 457 kts 186°
2026-04-25 16:53 32.01737 130.62038 31482 ft 456 kts 186°
2026-04-25 16:53 31.98588 130.61662 31866 ft 455 kts 186°
2026-04-25 16:54 31.96515 130.61415 32114 ft 455 kts 186°
2026-04-25 16:54 31.92314 130.60915 32606 ft 454 kts 186°
2026-04-25 16:54 31.90265 130.60672 32837 ft 453 kts 186°
2026-04-25 16:54 31.86090 130.60179 33286 ft 452 kts 186°
2026-04-25 16:55 31.82973 130.59813 33603 ft 452 kts 186°
2026-04-25 16:55 31.79859 130.59445 33908 ft 451 kts 186°
2026-04-25 16:55 31.76764 130.59073 34203 ft 451 kts 187°
2026-04-25 16:55 31.73667 130.58572 34490 ft 450 kts 189°
2026-04-25 16:56 31.70607 130.57881 34764 ft 449 kts 193°
2026-04-25 16:56 31.67567 130.56984 35024 ft 449 kts 196°
2026-04-25 16:56 31.64623 130.55908 35271 ft 448 kts 199°
2026-04-25 16:56 31.61674 130.54625 35514 ft 448 kts 201°
2026-04-25 16:57 31.58769 130.53305 35743 ft 447 kts 201°
2026-04-25 16:57 31.52983 130.50746 36021 ft 447 kts 201°
2026-04-25 16:58 31.47131 130.48178 36033 ft 453 kts 201°
2026-04-25 16:58 31.41214 130.45584 36034 ft 458 kts 201°
2026-04-25 16:59 31.35269 130.42976 36033 ft 458 kts 201°
2026-04-25 16:59 31.29319 130.40370 36033 ft 458 kts 201°
2026-04-25 17:00 31.23388 130.37689 36034 ft 458 kts 202°
2026-04-25 17:00 31.17514 130.34901 36033 ft 458 kts 202°
2026-04-25 17:01 31.11592 130.32083 36033 ft 458 kts 202°
2026-04-25 17:01 31.05733 130.29326 36033 ft 458 kts 201°
2026-04-25 17:02 30.99827 130.26561 36033 ft 458 kts 201°
2026-04-25 17:02 30.94907 130.24265 36033 ft 458 kts 201°
2026-04-25 17:03 30.88973 130.21501 36033 ft 458 kts 201°
2026-04-25 17:03 30.82067 130.18304 36033 ft 458 kts 201°
2026-04-25 17:04 30.76198 130.15585 36033 ft 458 kts 201°
2026-04-25 17:04 30.71251 130.13292 36033 ft 458 kts 201°
2026-04-25 17:05 30.64372 130.10107 36033 ft 458 kts 201°
2026-04-25 17:05 30.56476 130.06462 36033 ft 458 kts 201°
2026-04-25 17:06 30.49578 130.03351 36033 ft 458 kts 201°
2026-04-25 17:06 30.44634 130.01131 36033 ft 458 kts 201°
2026-04-25 17:07 30.38685 129.98459 36033 ft 458 kts 201°
2026-04-25 17:07 30.31773 129.95401 36034 ft 458 kts 200°
2026-04-25 17:08 30.25791 129.92923 36033 ft 458 kts 199°
2026-04-25 17:08 30.20795 129.90863 36034 ft 463 kts 200°
2026-04-25 17:09 30.13702 129.87929 36034 ft 468 kts 200°
2026-04-25 17:09 30.07553 129.85385 36033 ft 470 kts 200°
2026-04-25 17:10 30.01424 129.82849 36033 ft 470 kts 200°
2026-04-25 17:10 29.95370 129.80104 36033 ft 470 kts 202°
2026-04-25 17:11 29.90331 129.77777 36033 ft 470 kts 202°
2026-04-25 17:11 29.83292 129.74545 36033 ft 470 kts 202°
2026-04-25 17:12 29.78243 129.72231 36033 ft 470 kts 202°
2026-04-25 17:12 29.71171 129.68985 36033 ft 470 kts 202°
2026-04-25 17:13 29.67124 129.67128 36033 ft 470 kts 202°
2026-04-25 17:13 29.59039 129.63422 36033 ft 470 kts 202°
2026-04-25 17:14 29.52998 129.60657 36033 ft 470 kts 202°
2026-04-25 17:14 29.46952 129.57892 36033 ft 470 kts 202°
2026-04-25 17:15 29.40897 129.55127 36033 ft 470 kts 202°
2026-04-25 17:15 29.35834 129.52818 36033 ft 470 kts 202°
2026-04-25 17:16 29.29724 129.50230 36034 ft 470 kts 200°
2026-04-25 17:16 29.23582 129.47729 36033 ft 470 kts 200°
2026-04-25 17:17 29.17442 129.45232 36033 ft 470 kts 200°
2026-04-25 17:17 29.10270 129.42314 36033 ft 470 kts 200°
2026-04-25 17:18 29.04155 129.39830 36033 ft 470 kts 200°
2026-04-25 17:18 28.97991 129.37321 36032 ft 470 kts 200°
2026-04-25 17:19 28.92948 129.35127 36033 ft 470 kts 201°
2026-04-25 17:19 28.85845 129.31961 36033 ft 470 kts 201°
2026-04-25 17:20 28.80797 129.29733 36033 ft 470 kts 201°
2026-04-25 17:20 28.73707 129.26622 36033 ft 470 kts 201°
2026-04-25 17:21 28.68603 129.24390 36033 ft 470 kts 201°
2026-04-25 17:21 28.61508 129.21292 36033 ft 470 kts 201°
2026-04-25 17:22 28.57456 129.19525 36033 ft 470 kts 201°
2026-04-25 17:22 28.49371 129.16003 36033 ft 470 kts 201°
2026-04-25 17:23 28.44265 129.13782 36033 ft 470 kts 201°
2026-04-25 17:23 28.37199 129.10713 36033 ft 470 kts 201°
2026-04-25 17:24 28.31101 129.08072 36033 ft 470 kts 201°
2026-04-25 17:24 28.24995 129.05431 36033 ft 470 kts 201°
2026-04-25 17:25 28.18930 129.02812 36033 ft 470 kts 201°
2026-04-25 17:25 28.12820 129.00133 36034 ft 470 kts 202°
2026-04-25 17:26 28.06808 128.97366 36033 ft 470 kts 202°
2026-04-25 17:26 28.01756 128.95046 36033 ft 470 kts 202°
2026-04-25 17:27 27.94721 128.91834 36033 ft 470 kts 202°
2026-04-25 17:27 27.90689 128.89995 36033 ft 470 kts 202°
2026-04-25 17:28 27.83575 128.86926 36033 ft 470 kts 200°
2026-04-25 17:28 27.76460 128.83928 36033 ft 470 kts 200°
2026-04-25 17:29 27.71371 128.81773 36033 ft 470 kts 200°
2026-04-25 17:29 27.64238 128.78748 36033 ft 470 kts 200°
2026-04-25 17:30 27.58205 128.76190 35684 ft 459 kts 200°
2026-04-25 17:30 27.55233 128.74931 35054 ft 455 kts 200°
2026-04-25 17:30 27.52309 128.73694 34383 ft 452 kts 200°
2026-04-25 17:31 27.50392 128.72827 33961 ft 449 kts 205°
2026-04-25 17:31 27.47659 128.71170 33358 ft 445 kts 212°
2026-04-25 17:31 27.45162 128.69194 32786 ft 440 kts 218°
2026-04-25 17:31 27.42151 128.66119 32026 ft 435 kts 226°
2026-04-25 17:32 27.40815 128.64441 31652 ft 432 kts 230°
2026-04-25 17:32 27.39029 128.61772 31102 ft 429 kts 236°
2026-04-25 17:32 27.37473 128.58964 30564 ft 425 kts 239°
2026-04-25 17:32 27.35987 128.56126 30026 ft 421 kts 240°
2026-04-25 17:33 27.34015 128.52331 29308 ft 416 kts 240°
2026-04-25 17:33 27.33055 128.50491 28961 ft 414 kts 240°
2026-04-25 17:33 27.31595 128.47704 28438 ft 411 kts 239°
2026-04-25 17:33 27.29666 128.44035 27746 ft 406 kts 239°
2026-04-25 17:34 27.28247 128.41342 27241 ft 403 kts 239°
2026-04-25 17:34 27.26822 128.38644 26733 ft 400 kts 239°
2026-04-25 17:34 27.25884 128.36870 26398 ft 398 kts 239°
2026-04-25 17:34 27.24462 128.34181 25890 ft 394 kts 239°
2026-04-25 17:35 27.22613 128.30672 25225 ft 390 kts 239°
2026-04-25 17:35 27.21710 128.28960 24900 ft 388 kts 239°
2026-04-25 17:35 27.20328 128.26343 24402 ft 385 kts 239°
2026-04-25 17:35 27.18513 128.22919 23749 ft 381 kts 239°
2026-04-25 17:36 27.17255 128.20549 23295 ft 379 kts 239°
2026-04-25 17:36 27.16551 128.19223 23039 ft 377 kts 239°
2026-04-25 17:36 27.14776 128.15884 22393 ft 374 kts 239°
2026-04-25 17:36 27.14079 128.14572 22140 ft 372 kts 239°
2026-04-25 17:37 27.14027 128.14476 22122 ft 372 kts 239°
2026-04-25 17:37 27.13070 128.12676 21773 ft 370 kts 239°
2026-04-25 17:37 27.12237 128.11110 21468 ft 368 kts 239°
2026-04-25 17:37 27.11428 128.09589 21171 ft 366 kts 239°
2026-04-25 17:38 27.10131 128.07149 20694 ft 364 kts 239°
2026-04-25 17:38 27.09702 128.06343 20536 ft 363 kts 239°
2026-04-25 17:38 27.07553 128.02312 19741 ft 358 kts 239°
2026-04-25 17:38 27.06716 128.00742 19430 ft 357 kts 239°
2026-04-25 17:39 27.05446 127.98360 18957 ft 354 kts 239°
2026-04-25 17:39 27.03718 127.95252 18321 ft 351 kts 233°
2026-04-25 17:39 27.02652 127.93873 17998 ft 349 kts 224°
2026-04-25 17:39 27.00075 127.91756 17378 ft 346 kts 207°
2026-04-25 17:40 26.97871 127.90788 16907 ft 343 kts 194°
2026-04-25 17:40 26.96303 127.90449 16587 ft 342 kts 186°
2026-04-25 17:40 26.93951 127.90370 16124 ft 339 kts 179°
2026-04-25 17:40 26.90834 127.90488 15503 ft 336 kts 178°
2026-04-25 17:41 26.89275 127.90556 15189 ft 335 kts 178°
2026-04-25 17:41 26.86202 127.90678 14574 ft 331 kts 178°
2026-04-25 17:41 26.84680 127.90733 14269 ft 330 kts 178°
2026-04-25 17:41 26.81638 127.90833 13655 ft 327 kts 178°
2026-04-25 17:42 26.79380 127.90905 13198 ft 325 kts 178°
2026-04-25 17:42 26.77156 127.90973 12745 ft 323 kts 178°
2026-04-25 17:42 26.74929 127.91040 12290 ft 320 kts 178°
2026-04-25 17:42 26.73438 127.91085 11985 ft 319 kts 178°
2026-04-25 17:43 26.71248 127.91150 11535 ft 317 kts 178°
2026-04-25 17:43 26.68341 127.91237 11083 ft 313 kts 178°
2026-04-25 17:43 26.66180 127.91301 11039 ft 307 kts 178°
2026-04-25 17:43 26.64772 127.91342 11030 ft 296 kts 178°
2026-04-25 17:44 26.62748 127.91400 11036 ft 291 kts 179°
2026-04-25 17:44 26.60716 127.91457 11033 ft 292 kts 179°
2026-04-25 17:44 26.58696 127.91515 11033 ft 292 kts 178°
2026-04-25 17:44 26.56687 127.91573 11033 ft 292 kts 178°
2026-04-25 17:45 26.53962 127.91653 11033 ft 292 kts 178°
2026-04-25 17:45 26.53270 127.91674 11033 ft 292 kts 178°
2026-04-25 17:45 26.50594 127.91753 11033 ft 292 kts 178°
2026-04-25 17:45 26.48551 127.91813 11033 ft 292 kts 178°
2026-04-25 17:46 26.46551 127.91872 10887 ft 287 kts 178°
2026-04-25 17:46 26.43894 127.91950 10291 ft 288 kts 178°
2026-04-25 17:46 26.42559 127.91990 10020 ft 287 kts 178°
2026-04-25 17:46 26.39910 127.91980 9500 ft 285 kts 187°
2026-04-25 17:47 26.38620 127.91692 9236 ft 284 kts 197°
2026-04-25 17:47 26.36798 127.90896 8861 ft 282 kts 204°
2026-04-25 17:47 26.34448 127.89681 8350 ft 280 kts 205°
2026-04-25 17:47 26.32682 127.88754 7965 ft 279 kts 205°
2026-04-25 17:48 26.29765 127.87240 7333 ft 276 kts 205°
2026-04-25 17:48 26.28026 127.86346 6956 ft 274 kts 205°
2026-04-25 17:48 26.26304 127.85463 6610 ft 272 kts 205°
2026-04-25 17:49 26.24050 127.84311 6274 ft 266 kts 205°
2026-04-25 17:49 26.22386 127.83461 6120 ft 257 kts 205°
2026-04-25 17:49 26.21326 127.82919 5949 ft 247 kts 205°
2026-04-25 17:49 26.19333 127.81899 5608 ft 228 kts 205°
2026-04-25 17:50 26.17929 127.81180 5307 ft 221 kts 205°
2026-04-25 17:50 26.16996 127.80703 5125 ft 221 kts 205°
2026-04-25 17:50 26.15602 127.79990 4903 ft 219 kts 205°
2026-04-25 17:50 26.14231 127.79291 4657 ft 218 kts 205°
2026-04-25 17:51 26.12846 127.78586 4404 ft 217 kts 205°
2026-04-25 17:51 26.11490 127.77896 4231 ft 212 kts 205°
2026-04-25 17:51 26.09709 127.76989 3936 ft 210 kts 205°
2026-04-25 17:51 26.08388 127.76316 3697 ft 209 kts 205°
2026-04-25 17:52 26.07512 127.75871 3509 ft 207 kts 205°
2026-04-25 17:52 26.06641 127.75427 3276 ft 208 kts 206°
2026-04-25 17:52 26.05260 127.74020 2854 ft 208 kts 244°
2026-04-25 17:52 26.04921 127.71933 2478 ft 205 kts 268°
2026-04-25 17:53 26.04894 127.70869 2288 ft 205 kts 269°
2026-04-25 17:53 26.04856 127.68758 2040 ft 202 kts 269°
2026-04-25 17:53 26.04819 127.67236 2028 ft 194 kts 268°
2026-04-25 17:53 26.04773 127.65742 2030 ft 194 kts 268°
2026-04-25 17:54 26.04839 127.64249 2014 ft 194 kts 288°
2026-04-25 17:54 26.05319 127.63421 1995 ft 194 kts 321°
2026-04-25 17:54 26.06564 127.63008 2016 ft 186 kts
2026-04-25 17:54 26.07781 127.63286 1953 ft 173 kts 14°
2026-04-25 17:55 26.09304 127.63594 1695 ft 163 kts
2026-04-25 17:55 26.10043 127.63651 1542 ft 155 kts
2026-04-25 17:55 26.11413 127.63671 1249 ft 139 kts 359°
2026-04-25 17:55 26.12345 127.63631 1071 ft 135 kts 358°
2026-04-25 17:56 26.13293 127.63579 904 ft 135 kts 358°
2026-04-25 17:56 26.14226 127.63531 733 ft 135 kts 358°
2026-04-25 17:56 26.14854 127.63500 619 ft 134 kts 358°
2026-04-25 17:56 26.16098 127.63444 444 ft 135 kts 358°
2026-04-25 17:57 26.17027 127.63393 219 ft 134 kts 358°
2026-04-25 17:57 26.17955 127.63352 50 ft 132 kts 358°
2026-04-25 17:57 26.18824 127.63313 9 ft 113 kts 359°
2026-04-25 17:57 26.19070 127.63305 8 ft 98 kts 359°
2026-04-25 17:58 26.19729 127.63322 8 ft 29 kts 29°
2026-04-25 17:58 26.19834 127.63395 8 ft 0 kts 28°
2026-04-25 17:59 26.19841 127.63399 8 ft 7 kts 27°
2026-04-25 17:59 26.19950 127.63444 9 ft 26 kts 358°
2026-04-25 17:59 26.20074 127.63440 8 ft 0 kts 358°
2026-04-25 18:03 26.20101 127.63439 8 ft 5 kts 358°
2026-04-25 18:03 26.20140 127.63438 8 ft 7 kts 358°
2026-04-25 18:04 26.20243 127.63434 8 ft 21 kts 358°
2026-04-25 18:04 26.20300 127.63474 8 ft 10 kts 79°
2026-04-25 18:04 26.20316 127.63775 8 ft 42 kts 86°
2026-04-25 18:04 26.20328 127.63963 9 ft 31 kts 88°
2026-04-25 18:05 26.20337 127.64189 14 ft 13 kts 89°
2026-04-25 18:05 26.20338 127.64247 24 ft 8 kts 88°
2026-04-25 18:05 26.20377 127.64311 24 ft 14 kts
2026-04-25 18:05 26.20535 127.64310 22 ft 22 kts
2026-04-25 18:06 26.20621 127.64407 22 ft 27 kts 84°
2026-04-25 18:06 26.20631 127.64603 22 ft 15 kts 88°
2026-04-25 18:06 26.20631 127.64680 22 ft 16 kts 82°
2026-04-25 18:06 26.20754 127.64738 22 ft 26 kts 360°
2026-04-25 18:07 26.20906 127.64777 24 ft 20 kts 56°
2026-04-25 18:07 26.20935 127.64862 25 ft 10 kts 74°
2026-04-25 18:07 26.20944 127.64893 26 ft 0 kts 69°
2026-04-25 18:07 26.20950 127.64914 26 ft 14 kts 81°
2026-04-25 18:08 26.20953 127.64954 27 ft 0 kts 89°